Location: Alafon
(8.4500°N, 4.2333°E)
Time: 15:09:15
(UTC+00:00)

Vanguard 1 Rocket - Pass Details

Date: 31 July 2021
Orbit: 650 x 4226 km, 34.3° (Epoch: 23 September)

Event Time Altitude Azimuth Distance (km) Brightness Sun altitude
Exits shadow 02:48:17 11° 183° (S) 6,351 11.4 -38.5°
Maximum altitude 03:00:48 18° 147° (SSE) 6,467 11.7 -35.8°
Drops below altitude 10° 03:15:56 10° 111° (ESE) 7,419 12.4 -32.5°
Sets 03:25:09 0° 95° (E) 8,239 13.1 -30.5°
